Home   Weather   Paradise   Past weeks

Flag for Canada Past Weather in Paradise, Newfoundland and Labrador, Canada — Yesterday and Last 2 Weeks

Now
18 °F

Snow flurries. Partly sunny.


Feels Like: 2 °F
Forecast: 15 / 20 °F
Wind: 17 mph from Northwest

Location: St. John's

Current Time: Jan 22, 2018 at 9:13:32 am

Latest Report: Jan 22, 2018 at 8:30 am


Visibility: 15 mi

Pressure: 29.84 "Hg

Humidity: 73%

Dew Point: 10 °F

Location of ParadiseLocation

Past Weather in Paradise — Graph

°F

Paradise Temperature Yesterday

Maximum temperature yesterday: 36 °F (at 12:30 am)
Minimum temperature yesterday: 19 °F (at 9:30 pm)
Average temperature yesterday: 28 °F

High & Low Weather Summary for the Past Weeks

 TemperatureHumidityPressure
High57 °F (Jan 13, 2:30 pm)100% (Jan 9, 12:30 pm)30.78 "Hg (Jan 9, 12:30 pm)
Low14 °F (Jan 11, 4:30 am)54% (Jan 11, 1:06 pm)29.22 "Hg (Jan 21, 12:30 am)
Average29 °F85%29.94 "Hg
* Reported Jan 7 7:30 am — Jan 22 7:30 am, Paradise. Weather by CustomWeather, © 2018

Note: Actual official high and low records may vary slightly from our data, if they occured in-between our weather recording intervals... More about our weather records

Advertising

Paradise Weather History for the Previous 24 Hours

Scroll right to see more
 ConditionsComfort  
Time TempWeatherWind HumidityBarometerVisibility
7:30 am
Mon, Jan 22
18 °FOvercast.20 mph73%29.83 "Hg15 mi
6:51 am18 °FSnow flurries. Overcast.18 mph73%29.83 "Hg15 mi
6:30 am18 °FOvercast.23 mph73%29.82 "Hg15 mi
5:30 am18 °FPassing clouds.30 mph73%29.79 "Hg15 mi
4:30 am18 °FPassing clouds.37 mph73%29.76 "Hg15 mi
3:30 am19 °FPassing clouds.39 mph68%29.75 "Hg15 mi
2:30 am19 °FPassing clouds.36 mph68%29.75 "Hg15 mi
2:10 am19 °FPassing clouds.33 mph68%29.74 "Hg15 mi
1:47 am19 °FSnow flurries. Passing clouds.35 mph68%29.72 "Hg15 mi
1:30 am19 °FPartly cloudy.40 mph68%29.71 "Hg15 mi
1:06 am19 °FSnow flurries. Passing clouds.37 mph68%29.71 "Hg15 mi
12:30 am19 °FPassing clouds.37 mph68%29.71 "Hg15 mi
11:30 pm
Sun, Jan 21
19 °FPassing clouds.35 mph73%29.71 "Hg15 mi
10:30 pm19 °FPassing clouds.28 mph73%29.70 "Hg15 mi
9:30 pm19 °FPassing clouds.23 mph73%29.69 "Hg15 mi
8:30 pm21 °FPassing clouds.32 mph68%29.67 "Hg15 mi
7:30 pm21 °FPassing clouds.30 mph68%29.66 "Hg15 mi
6:30 pm23 °FPassing clouds.33 mph63%29.64 "Hg15 mi
5:30 pm23 °FPassing clouds.32 mph63%29.61 "Hg15 mi
4:30 pm25 °FPassing clouds.30 mph59%29.58 "Hg15 mi
3:30 pm27 °FPassing clouds.31 mph64%29.56 "Hg15 mi
2:30 pm27 °FPassing clouds.33 mph64%29.53 "Hg15 mi
1:30 pm27 °FPassing clouds.31 mph69%29.49 "Hg15 mi
12:30 pm28 °FPassing clouds.35 mph59%29.46 "Hg15 mi
11:30 am28 °FPassing clouds.35 mph69%29.44 "Hg15 mi
10:30 am28 °FPassing clouds.38 mph69%29.44 "Hg15 mi
9:30 am30 °FScattered clouds.36 mph64%29.40 "Hg15 mi
Weather by CustomWeather, © 2018

See weather overview